FLOCK 2K-35 (42877 NORAD) Tracking and Keplerian Element Data

This shows tracking and keplerian element data for the satellite.

Feedback or suggestion? Click here.




ElementValue
Catalog42877
NameFLOCK 2K-35
Epoch Orbit14152
Epoch Day22.76073755
Epoch Year2020
RAAN258.8217
Inclination96.9131
Eccentricity0.001195
Argument of Perigee129.8258
Mean Anonmoly230.4043
Mean Motion15.40354276
Decay Rate2.116E-05
L11 42877U 17042BE 20022.76073755 .00002116 00000-0 54216-4 0 9990
L22 42877 96.9131 258.8217 0011950 129.8258 230.4043 15.40354276141529

Live tracking and technical data element details for FLOCK 2K-35 (NORAD 42877). FLOCK 2K-35 can be tracked NOW for your location showing map with azimuth and elevation plus other details from your city location.

Track the satellite on the map from your city or location and see movement details for azimuth, elevation, latitude, longitude, range, height, and movement on the map or in text.







IsCatalogInMostPopularTable: catalog: 42877, numindb: 360
Update: records affected: 1



GetName: 42877 FLOCK 2K-35

Hit Count: updated at: Fri, 24 Jan 2020 10:27:00 GMT